Vertical_Velocity
-0 0 0 1 -0 -1 0 -1 2 0 -3 1 -1 -1 -4 1 2 2 -1 9 3 3 -3 1 2 -2 -0 1 0 -8 -5 -3 -2 -2 -1 -2 0 -4 -2 -2 -3 -2 -3 -1 -1 -2 -5 1 -3 -15 -6 -4 2 -0
-0 0 1 -1 1 -2 2 1 -1 2 0 -0 1 1 -1 -0 2 1 -0 4 5 8 3 5 3 3 -1 4 7 1 -1 -1 -1 -1 0 -0 0 0 -2 -1 0 -5 -7 -6 -8 -7 -2 2 -3 -1 1 2 -2 2
-1 -0 0 1 -1 -0 1 1 2 0 -2 -0 2 2 1 2 1 3 0 3 0 6 -5 -1 1 2 1 -1 1 5 2 4 -0 1 -1 -0 0 0 -0 1 -1 -0 0 1 3 2 -0 -1 1 2 1 2 2 1
-0 1 -0 -1 -1 -1 -0 -1 -1 3 0 -1 1 2 1 0 -1 3 3 2 2 1 2 -1 2 2 -0 -1 1 3 1 2 2 1 0 -0 1 -1 1 2 -3 5 -3 2 1 -2 -1 4 2 2 -1 1 -1 1
1 -1 1 -0 2 -0 -1 0 1 3 3 2 0 1 0 -0 -2 1 -0 -1 1 -2 -2 -1 2 6 -1 3 2 1 1 2 2 0 1 1 -0 -4 1 -4 -1 2 3 1 2 4 3 -3 1 3 -2 -1 1 0
1 -1 -2 -0 2 3 3 -2 2 6 6 -0 2 1 1 -2 -3 0 -1 -2 -1 3 1 -1 3 2 4 1 1 1 0 -1 1 3 2 1 1 -1 -2 -0 6 3 2 5 1 -2 3 11 -0 -1 -0 -0 -0 3
1 2 4 -1 -4 -3 -3 -4 0 7 4 3 3 1 -0 -5 -0 -1 -4 -2 -1 -1 -0 -2 -1 -0 -3 -1 -3 1 0 -1 -0 1 -2 -1 -2 -6 -1 -1 -0 -0 0 2 1 -4 -1 -4 -1 -0 1 1 -1 3
0 1 -0 3 5 2 0 11 9 8 4 4 7 3 -0 -2 3 3 1 -1 0 -3 -0 -2 -5 -3 -6 -1 -3 -2 -2 1 -2 1 -1 -2 -4 -2 -2 0 1 -0 -1 3 -2 3 5 3 2 1 1 -0 -1 -2
4 2 2 2 2 3 9 9 14 1 7 8 6 2 2 3 2 0 -1 -0 1 1 -4 -2 -2 -3 -4 2 1 1 0 -3 3 -1 0 -6 -1 -1 -3 1 1 1 2 0 -2 -0 -1 1 -0 1 0 0 -0 -1
3 5 4 5 2 4 4 19 -1 3 8 8 2 1 1 -0 1 1 6 1 -0 -2 -3 -4 0 -3 -1 -1 -2 -2 0 -1 -2 -2 -1 -4 -1 3 0 2 1 -0 -0 1 -4 -11 -7 -4 -1 -1 0 3 2 1
4 4 6 7 3 3 16 9 4 -0 12 5 -1 -1 1 -1 2 0 -2 -4 -0 -2 -1 -0 -1 -1 2 -3 -2 1 -2 -2 -3 -6 -8 -1 -1 -1 0 -0 0 -0 0 1 3 4 4 4 1 -1 -2 1 1 1
3 5 5 8 -0 10 34 -3 6 8 5 1 -5 -1 2 -2 -0 -6 -1 -0 -2 0 1 -1 -1 -0 0 1 -1 -0 -1 -5 -2 -0 -6 -0 -5 -1 -1 -1 -2 -2 -1 -0 2 -1 1 2 2 1 2 1 1 2
-1 1 2 4 15 24 0 5 7 8 5 -2 -3 -4 -2 -0 -2 0 -0 2 1 1 -0 -2 -0 -1 1 0 0 -3 -4 -2 0 -4 -3 -6 -1 -1 -1 -1 -3 1 -0 0 1 2 1 1 4 2 -2 3 2 1
1 -0 -2 7 14 9 4 5 5 4 -4 -4 -2 -0 -1 1 1 -1 -0 -0 1 0 0 -1 -0 -2 0 -3 0 -4 -4 -5 -2 -1 -5 -3 1 -1 0 -0 -4 -4 0 -0 -1 -0 -0 -0 -1 2 2 3 1 -0
-3 -1 3 16 12 8 12 2 9 5 -7 -5 -2 -0 -0 1 0 0 -1 -1 0 -1 -1 -1 -1 -1 -1 -3 -2 -4 -7 -2 -4 -6 -3 -0 1 -0 -1 -2 -1 -2 -1 -2 -1 -3 -2 -0 0 -1 1 1 1 2
2 -6 -2 7 13 2 8 12 7 -2 -6 -4 -2 -2 3 -4 2 1 0 -0 0 -1 -1 -1 -1 -3 -1 -2 -4 -2 -4 -4 -7 -2 -3 -2 -2 -0 0 0 -1 -1 -0 -2 0 -1 -1 0 -0 -1 1 3 3 1
6 2 3 -0 4 9 7 2 -4 -7 -3 -2 0 5 -1 -0 -2 0 -1 -1 -0 -1 -0 -1 -3 -6 -2 -2 -1 -2 -4 -5 -3 -4 -1 2 0 -1 1 -1 -2 -2 -1 0 -1 1 -1 0 2 1 0 3 1 1
24 14 4 -0 3 4 1 -4 -6 -3 -1 1 -3 2 -0 1 -1 0 -0 1 -0 -1 -1 -2 -3 -1 -1 -2 -3 -4 -2 -1 2 -1 -1 -1 0 1 2 -1 -0 0 -2 0 1 -1 0 0 -0 -1 1 0 -0 -1
9 5 1 32 24 -0 -2 -1 1 -4 3 1 3 1 1 1 1 -0 -1 -0 -1 -1 -3 -1 -3 -1 -2 -2 -2 -0 1 0 -1 0 -1 -1 1 -0 -1 0 0 -1 -0 0 -1 1 -0 0 0 -2 2 -0 -2 -1
16 41 21 1 13 -6 -4 -1 1 -4 1 3 0 0 2 0 -0 0 -0 -1 -1 -1 -2 -1 -2 -3 -3 -1 0 -0 -0 1 0 -2 -4 -3 -1 -4 -1 -1 -2 -1 -1 0 -1 5 2 0 3 0 2 4 -3 -4
7 5 20 9 -7 -9 -3 1 -2 -0 -2 -2 1 -0 -0 1 -1 -0 -0 -0 -0 -1 -1 -2 -2 -1 -2 -1 -0 -0 0 0 -0 0 -2 -6 3 0 1 1 0 -0 -1 -1 -2 -3 -0 -2 -1 -1 -0 -3 -1 -3
-0 4 -5 2 -7 -2 -5 1 -4 2 -6 3 -1 0 -0 0 0 -0 -1 -1 -1 -2 -3 -2 -2 -2 -3 -1 -1 -0 0 -1 -1 -2 2 -2 -5 -2 -1 -0 -1 -1 1 0 -0 -1 -1 -1 1 4 -2 -3 -2 -1
8 2 -3 -3 -8 -3 2 1 -3 1 -3 -0 1 -1 0 -0 0 -0 -1 -1 -2 -1 -1 -1 -1 -2 -2 -3 -1 -0 -1 -1 -1 -1 -1 -0 -0 -0 -1 -1 -1 -1 -0 3 1 -1 -2 2 -3 1 -2 -2 -1 -1
4 -8 -4 -2 -5 2 1 -1 -1 -2 -1 0 -0 1 1 0 -0 -0 -1 -1 -1 -1 -2 -1 -1 -1 -1 0 1 0 -2 -2 -1 1 -2 -2 -1 0 -1 -1 -0 1 -0 -0 -0 -1 -0 -1 -0 -2 -0 -1 -1 -1
-6 -1 -3 2 1 -2 -0 2 2 -0 0 0 -0 1 1 0 -1 -0 -1 -3 -2 -2 -1 -1 -1 -1 0 1 0 -1 -1 -1 -1 -1 -2 -1 -1 -1 1 2 2 -3 -1 -2 0 -1 -3 -2 -1 0 0 0 -3 -1
-5 -1 -0 -0 1 -3 0 -1 -0 -1 -1 0 1 1 0 -1 -1 -3 -3 -3 -3 -2 -2 -3 -2 0 0 -1 -1 -1 -1 -1 -1 -1 -1 -1 -1 -1 -1 -3 -4 2 1 -0 -2 -2 -3 -1 -0 -0 -1 2 1 3
-1 1 1 1 -2 -2 -0 0 -1 -2 -1 -1 -0 1 -1 -1 -2 -6 -1 -3 -2 -2 -2 -1 0 -0 -1 -1 -1 -1 -2 -2 -1 -1 -2 -1 -0 -1 -1 -2 -3 -0 0 -2 0 1 0 -0 -1 -1 -2 -1 2 0
0 1 -3 2 -1 0 -2 -0 -1 -0 0 1 -1 -2 -5 -6 -7 -0 -1 -2 -2 -2 -1 -0 -1 -1 -1 -1 -1 -1 -2 -1 -1 -2 -2 -2 -2 -1 -0 -1 -1 0 2 2 3 2 1 1 -0 -1 -0 -1 -1 0
-1 2 -0 0 -0 -2 1 1 1 1 1 -1 -2 -0 -2 0 -0 -1 -2 -2 -2 -1 -1 -2 -1 -2 -1 -1 -2 -2 -2 -2 -2 -2 -2 -1 -2 -2 -1 0 1 1 -1 -1 1 0 -2 11 1 -2 1 1 1 -0
1 -1 -1 -1 -2 1 1 1 1 2 1 1 1 -1 -1 -1 -1 -1 -1 -1 -1 -1 -1 -2 -2 -2 -1 -1 -2 -2 -2 -2 -2 -1 -1 -1 -2 -0 0 0 1 1 0 0 1 1 1 0 -1 -1 -0 -0 -0 -0
1 -0 -2 -1 1 -1 2 2 2 1 1 0 0 -0 0 -1 -1 -2 -1 -1 -1 -1 -2 -2 -2 -2 -2 -2 -2 -2 -2 -2 -1 -1 -1 -1 -1 -0 1 1 0 0 -0 -0 0 -0 -0 -1 -0 0 -0 -1 -1 -1
-1 0 -3 -0 0 -2 1 1 1 -0 -1 -1 -1 -0 -1 -1 -2 -1 -2 -2 -2 -3 -3 -2 -1 -2 -2 -2 -1 -1 -2 -2 -2 -2 -2 -1 -1 -0 2 1 1 -0 -0 0 0 0 -0 -1 -1 -0 -1 -1 -1 -1
-2 -0 2 -2 -1 -0 0 0 -0 -1 -1 -0 -1 -1 -1 -1 -3 -2 -2 -2 -2 -1 -1 0 -1 -2 -2 -1 -2 -2 -2 -2 -1 -1 -2 -1 -0 6 -1 0 0 0 0 0 -0 -0 -0 -0 -0 0 0 -0 -0 -1
Height
1527 1524 1521 1517 1514 1511 1508 1506 1502 1498 1495 1492 1489 1486 1483 1480 1476 1473 1470 1468 1467 1461 1456 1456 1456 1457 1456 1456 1456 1451 1451 1446 1443 1448 1449 1444 1444 1449 1449 1453 1459 1457 1464 1466 1476 1479 1461 1455 1451 1457 1460 1455 1454 1452
1520 1517 1514 1511 1508 1505 1503 1500 1497 1494 1490 1486 1483 1479 1477 1473 1470 1467 1464 1462 1461 1460 1455 1452 1452 1452 1452 1452 1452 1449 1448 1446 1442 1443 1446 1444 1441 1448 1449 1439 1455 1456 1464 1467 1464 1466 1461 1460 1459 1459 1458 1456 1452 1449
1512 1509 1506 1504 1501 1499 1496 1493 1490 1487 1484 1480 1477 1473 1470 1467 1463 1460 1458 1458 1455 1454 1450 1448 1447 1448 1448 1448 1448 1448 1445 1443 1441 1440 1441 1439 1442 1436 1437 1444 1450 1456 1456 1456 1457 1462 1459 1460 1460 1459 1456 1454 1451 1448
1503 1500 1498 1496 1494 1492 1489 1486 1483 1479 1476 1473 1470 1466 1463 1459 1456 1453 1451 1451 1452 1452 1451 1446 1445 1445 1445 1444 1443 1443 1442 1440 1440 1438 1437 1434 1434 1437 1447 1451 1456 1464 1460 1460 1456 1460 1458 1459 1459 1458 1455 1452 1449 1446
1492 1490 1489 1487 1485 1483 1481 1478 1475 1472 1468 1465 1462 1459 1456 1453 1450 1447 1445 1445 1447 1450 1447 1444 1443 1442 1441 1442 1441 1439 1439 1438 1436 1434 1433 1439 1442 1445 1452 1459 1468 1469 1469 1466 1462 1466 1465 1461 1459 1457 1453 1450 1447 1444
1482 1480 1478 1477 1475 1474 1472 1470 1466 1464 1459 1456 1453 1451 1448 1446 1445 1444 1443 1445 1445 1447 1445 1442 1440 1439 1440 1439 1439 1438 1437 1435 1434 1434 1439 1443 1447 1446 1452 1465 1473 1472 1470 1469 1468 1464 1461 1460 1458 1456 1452 1448 1445 1443
1470 1468 1466 1465 1464 1463 1462 1460 1457 1454 1450 1447 1444 1442 1440 1439 1440 1441 1441 1440 1441 1444 1446 1442 1439 1439 1438 1437 1436 1436 1435 1434 1435 1438 1443 1448 1451 1452 1461 1469 1472 1470 1468 1467 1465 1461 1460 1459 1457 1454 1450 1447 1443 1440
1455 1455 1455 1454 1453 1453 1452 1449 1447 1444 1441 1438 1436 1435 1434 1435 1436 1436 1436 1435 1435 1439 1440 1443 1441 1440 1441 1439 1438 1436 1436 1435 1438 1442 1447 1452 1456 1461 1473 1473 1472 1469 1465 1464 1463 1462 1460 1458 1455 1452 1449 1445 1441 1438
1442 1441 1442 1442 1443 1443 1442 1441 1438 1436 1434 1432 1430 1430 1433 1433 1433 1433 1434 1435 1435 1439 1438 1444 1451 1451 1444 1443 1441 1439 1438 1442 1443 1447 1452 1456 1468 1477 1474 1472 1470 1468 1467 1464 1461 1459 1457 1455 1452 1449 1446 1443 1439 1437
1428 1428 1429 1430 1432 1433 1433 1431 1428 1428 1426 1425 1427 1429 1428 1431 1432 1433 1432 1433 1434 1437 1441 1448 1451 1451 1450 1447 1444 1444 1442 1448 1456 1455 1453 1464 1472 1471 1471 1470 1469 1467 1465 1463 1459 1455 1453 1451 1449 1446 1444 1441 1438 1436
1416 1415 1416 1418 1420 1422 1423 1418 1419 1418 1419 1420 1420 1422 1424 1427 1430 1430 1432 1434 1439 1444 1447 1450 1451 1452 1450 1453 1452 1450 1452 1449 1459 1459 1460 1476 1476 1470 1469 1468 1467 1465 1464 1462 1459 1457 1454 1451 1447 1444 1441 1439 1436 1434
1404 1403 1403 1405 1408 1412 1412 1411 1410 1409 1411 1412 1415 1418 1423 1426 1428 1431 1440 1442 1441 1447 1449 1450 1452 1452 1451 1451 1451 1450 1452 1450 1460 1456 1467 1479 1470 1467 1466 1465 1463 1462 1460 1458 1456 1453 1450 1448 1445 1442 1439 1436 1434 1432
1392 1392 1392 1394 1397 1399 1399 1402 1402 1401 1405 1409 1413 1416 1419 1426 1431 1427 1431 1440 1444 1447 1449 1449 1450 1450 1451 1452 1451 1452 1457 1460 1457 1467 1474 1471 1465 1465 1464 1461 1459 1459 1457 1454 1452 1449 1446 1444 1442 1439 1437 1434 1432 1430
1382 1381 1381 1384 1387 1386 1388 1391 1391 1394 1399 1404 1410 1419 1420 1425 1431 1432 1434 1438 1443 1445 1446 1446 1447 1449 1450 1452 1455 1457 1461 1461 1472 1479 1474 1465 1462 1461 1460 1458 1455 1453 1452 1450 1447 1444 1442 1439 1437 1435 1434 1431 1429 1427
1375 1374 1374 1375 1375 1377 1380 1380 1382 1387 1394 1402 1408 1417 1425 1429 1432 1435 1436 1439 1441 1443 1444 1446 1448 1450 1454 1456 1461 1463 1469 1483 1476 1471 1465 1460 1458 1457 1455 1454 1451 1449 1448 1446 1443 1440 1437 1435 1433 1431 1430 1429 1427 1425
1369 1367 1367 1368 1369 1370 1373 1376 1381 1385 1393 1401 1411 1420 1426 1427 1434 1436 1437 1439 1440 1441 1443 1445 1449 1454 1462 1464 1464 1474 1479 1475 1467 1460 1458 1456 1454 1453 1451 1449 1447 1446 1444 1442 1439 1437 1434 1432 1430 1428 1427 1426 1424 1423
1364 1364 1362 1361 1364 1368 1372 1377 1383 1389 1397 1406 1413 1416 1421 1424 1430 1434 1436 1438 1439 1440 1443 1445 1451 1457 1462 1470 1469 1468 1467 1459 1456 1454 1453 1451 1449 1448 1447 1445 1443 1442 1440 1438 1435 1433 1431 1429 1428 1426 1425 1423 1421 1420
1360 1358 1353 1353 1356 1363 1369 1374 1382 1393 1405 1413 1416 1422 1423 1426 1430 1433 1436 1437 1439 1440 1442 1446 1447 1455 1460 1464 1462 1454 1451 1452 1450 1449 1447 1446 1444 1443 1442 1440 1439 1438 1436 1434 1431 1429 1428 1426 1425 1424 1423 1421 1419 1418
1352 1351 1353 1356 1357 1359 1366 1379 1384 1398 1413 1416 1419 1423 1427 1429 1432 1434 1436 1437 1438 1439 1442 1444 1450 1454 1450 1448 1448 1447 1448 1447 1444 1443 1442 1441 1440 1439 1437 1436 1434 1433 1431 1429 1427 1426 1425 1424 1422 1421 1420 1419 1417 1416
1347 1350 1350 1355 1358 1361 1372 1385 1390 1397 1411 1418 1422 1426 1428 1431 1434 1436 1437 1438 1439 1440 1442 1445 1445 1444 1445 1445 1445 1444 1443 1442 1440 1438 1437 1437 1436 1434 1433 1432 1431 1429 1427 1426 1424 1424 1423 1422 1421 1419 1418 1417 1415 1414
1343 1347 1351 1354 1358 1366 1380 1389 1397 1405 1414 1418 1424 1427 1430 1433 1435 1436 1437 1438 1439 1439 1440 1440 1440 1442 1442 1442 1442 1441 1440 1438 1437 1436 1435 1433 1432 1431 1430 1428 1427 1426 1424 1423 1421 1420 1420 1419 1418 1417 1415 1414 1413 1411
1345 1349 1354 1357 1364 1376 1387 1394 1399 1406 1414 1420 1425 1427 1430 1433 1434 1436 1436 1437 1437 1437 1437 1437 1438 1439 1439 1439 1438 1437 1435 1434 1433 1433 1433 1431 1429 1428 1426 1425 1424 1423 1422 1420 1419 1418 1418 1417 1417 1416 1413 1411 1410 1408
1348 1353 1357 1362 1371 1383 1399 1399 1403 1412 1419 1425 1426 1428 1431 1433 1434 1436 1436 1434 1432 1433 1433 1435 1435 1436 1436 1435 1434 1433 1431 1430 1430 1430 1428 1427 1426 1425 1424 1423 1422 1421 1420 1419 1417 1416 1416 1416 1414 1412 1410 1408 1406 1405
1351 1355 1362 1366 1375 1390 1395 1401 1405 1412 1421 1425 1426 1429 1433 1434 1435 1436 1436 1430 1428 1429 1431 1432 1432 1433 1433 1432 1431 1429 1428 1427 1427 1426 1425 1424 1424 1424 1423 1422 1421 1419 1417 1416 1415 1414 1413 1412 1411 1408 1406 1404 1403 1401
1352 1364 1366 1373 1377 1383 1391 1398 1404 1408 1416 1421 1425 1430 1432 1433 1436 1438 1433 1424 1424 1426 1428 1428 1429 1429 1428 1428 1427 1426 1425 1424 1424 1423 1422 1422 1422 1422 1421 1420 1418 1416 1415 1414 1413 1411 1410 1408 1406 1404 1402 1400 1399 1398
1357 1364 1366 1368 1374 1376 1384 1390 1395 1403 1410 1418 1424 1428 1429 1432 1435 1430 1423 1419 1422 1423 1424 1424 1425 1425 1425 1424 1423 1423 1422 1422 1421 1420 1421 1421 1421 1421 1419 1418 1416 1415 1414 1412 1410 1408 1406 1404 1402 1399 1397 1396 1395 1393
1358 1365 1366 1368 1371 1375 1382 1388 1393 1396 1403 1409 1418 1424 1426 1431 1428 1417 1416 1418 1420 1421 1421 1422 1422 1422 1421 1421 1420 1420 1419 1419 1419 1419 1419 1419 1419 1419 1417 1416 1414 1413 1411 1409 1407 1405 1403 1400 1398 1396 1394 1391 1390 1388
1361 1364 1366 1371 1373 1375 1379 1385 1390 1394 1398 1402 1408 1416 1415 1412 1415 1414 1415 1417 1419 1419 1420 1420 1420 1420 1419 1419 1418 1418 1417 1417 1417 1417 1417 1417 1417 1416 1415 1413 1411 1409 1408 1406 1404 1402 1399 1397 1395 1392 1390 1388 1385 1384
1365 1368 1369 1375 1376 1380 1385 1388 1391 1393 1396 1398 1402 1407 1407 1408 1410 1412 1414 1416 1417 1418 1418 1419 1419 1418 1418 1417 1416 1415 1415 1415 1415 1415 1415 1415 1415 1414 1413 1411 1409 1406 1404 1402 1400 1398 1396 1396 1392 1389 1387 1385 1384 1383
1370 1371 1373 1378 1383 1390 1393 1392 1393 1394 1397 1399 1401 1404 1407 1409 1411 1413 1414 1415 1415 1416 1417 1418 1417 1417 1416 1415 1414 1414 1413 1413 1412 1413 1413 1413 1413 1412 1411 1409 1406 1404 1401 1399 1397 1395 1392 1391 1389 1387 1386 1384 1383 1383
1370 1372 1377 1386 1394 1397 1396 1396 1397 1399 1400 1402 1403 1405 1407 1409 1411 1412 1412 1412 1413 1415 1416 1416 1416 1415 1414 1413 1412 1412 1411 1411 1410 1410 1410 1411 1411 1410 1408 1406 1403 1401 1399 1397 1394 1392 1390 1388 1387 1386 1384 1383 1382 1381
1373 1375 1379 1390 1400 1401 1400 1400 1400 1402 1404 1406 1407 1408 1409 1410 1409 1408 1408 1408 1410 1412 1413 1413 1414 1413 1413 1412 1411 1411 1410 1410 1409 1408 1408 1408 1408 1407 1405 1402 1400 1398 1396 1394 1392 1390 1389 1387 1385 1384 1382 1381 1380 1379
1379 1379 1382 1389 1398 1400 1401 1401 1403 1406 1407 1407 1408 1409 1409 1409 1406 1405 1405 1406 1408 1410 1411 1412 1412 1412 1411 1411 1410 1410 1409 1409 1408 1407 1406 1405 1406 1407 1403 1400 1398 1395 1393 1391 1390 1388 1386 1385 1383 1381 1379 1378 1377 1375